Flag for Poland Weather past 2 weeks in Warsaw, Poland

Now
68 °F

Partly sunny.


Feels Like: 68 °F
Forecast: 54 / 67 °F
Wind: 12 mph from West

Location: Warsaw Okecie Airport

Current Time: Jul 30, 2015 at 12:51:53 PM

Latest Report: Jul 30, 2015 at 12:30 PM


Visibility: N/A

Pressure: 29.83 "Hg

Humidity: 49%

Dew point: 48 °F

Location of WarsawLocation

Historic Weather in Warsaw — Graph

°F

Warsaw temperature yesterday

Maximum temperature yesterday: 72 °F (at 11:00 AM)
Minimum temperature yesterday: 55 °F (at 1:30 AM)
Average temperature yesterday: 64 °F

Past Weeks' High & Low Weather Summary

 TemperatureHumidityPressure
High97 °F (Jul 18, 3:00 PM)100% (Jul 16, 5:00 AM)30.09 "Hg (Jul 16, 5:00 AM)
Low50 °F (Jul 27, 4:00 AM)26% (Jul 18, 4:30 PM)29.62 "Hg (Jul 19, 7:30 PM)
Average69 °F64%29.88 "Hg
* Reported Jul 15 11:00 AM — Jul 30 11:30 AM, Warsaw, Weather by CustomWeather, © 2015

Note: Actual official high and low records may vary slightly from our data, if they occured in-between our weather recording intervals... More about our weather records

Advertising

Warsaw weather history for previous 24 hours

 ConditionsComfort  
Time TempWeatherWind HumidityBarometerVisibility
11:30 AM
Thu, Jul 30
68 °FScattered clouds.13 mph49%29.80 "HgN/A
11:00 AM64 °FScattered clouds.10 mph56%29.80 "HgN/A
10:30 AM66 °FPassing clouds.13 mph52%29.80 "HgN/A
10:00 AM64 °FScattered clouds.14 mph56%29.80 "HgN/A
9:30 AM63 °FScattered clouds.12 mph64%29.80 "HgN/A
9:00 AM63 °FPassing clouds.10 mph64%29.80 "HgN/A
8:30 AM61 °FSunny.10 mph68%29.80 "Hg10 mi
8:00 AM59 °FPassing clouds.8 mph77%29.80 "HgN/A
7:30 AM57 °FPassing clouds.8 mph77%29.80 "HgN/A
7:00 AM57 °FPassing clouds.9 mph82%29.80 "HgN/A
6:30 AM55 °FSunny.8 mph88%29.80 "Hg10 mi
6:00 AM55 °FPassing clouds.6 mph88%29.80 "HgN/A
5:30 AM54 °FPassing clouds.7 mph94%29.80 "HgN/A
5:00 AM54 °FClear.7 mph94%29.77 "Hg10 mi
4:30 AM55 °FPassing clouds.7 mph88%29.77 "HgN/A
4:00 AM55 °FPassing clouds.5 mph88%29.77 "HgN/A
3:30 AM54 °FPassing clouds.5 mph94%29.74 "HgN/A
3:00 AM55 °FPassing clouds.5 mph94%29.77 "HgN/A
2:30 AM55 °FPassing clouds.5 mph94%29.77 "HgN/A
2:00 AM55 °FSprinkles. Passing clouds.5 mph94%29.74 "HgN/A
1:30 AM57 °FSprinkles. Partly cloudy.9 mph88%29.74 "HgN/A
1:00 AM57 °FSprinkles. Passing clouds.10 mph88%29.74 "HgN/A
12:30 AM61 °FSprinkles. Passing clouds.17 mph72%29.74 "HgN/A
12:00 AM63 °FPassing clouds.8 mph73%29.71 "HgN/A
11:30 PM
Wed, Jul 29
59 °FClear.8 mph82%29.71 "Hg10 mi
11:00 PM57 °FClear.7 mph82%29.71 "Hg10 mi
10:30 PM61 °FClear.6 mph72%29.71 "Hg10 mi
10:00 PM61 °FPassing clouds.6 mph72%29.71 "HgN/A
9:30 PM63 °FSunny.6 mph68%29.71 "Hg10 mi
9:00 PM63 °FSunny.3 mph68%29.74 "Hg10 mi
8:30 PM64 °FSunny.5 mph64%29.74 "Hg10 mi
8:00 PM66 °FSunny.6 mph60%29.71 "Hg10 mi
7:30 PM68 °FSunny.7 mph56%29.71 "Hg10 mi
7:00 PM68 °FSunny.6 mph56%29.71 "Hg10 mi
6:30 PM68 °FSunny.7 mph53%29.74 "Hg10 mi
6:00 PM70 °FPassing clouds.6 mph50%29.74 "HgN/A
5:30 PM70 °FPassing clouds.3 mph46%29.74 "HgN/A
5:00 PM70 °FPassing clouds.5 mph46%29.74 "HgN/A
4:30 PM72 °FPassing clouds.6 mph44%29.74 "HgN/A
4:00 PM70 °FPassing clouds.8 mph50%29.74 "HgN/A
3:30 PM72 °FPassing clouds.8 mph44%29.74 "HgN/A
3:00 PM70 °FPassing clouds.10 mph46%29.74 "HgN/A
2:30 PM72 °FPassing clouds.13 mph47%29.74 "HgN/A
2:00 PM70 °FSunny.9 mph50%29.74 "Hg10 mi
1:30 PM70 °FPassing clouds.9 mph43%29.74 "HgN/A
1:00 PM68 °FPassing clouds.6 mph49%29.77 "HgN/A
12:30 PM68 °FScattered clouds.7 mph49%29.77 "HgN/A
12:00 PM68 °FScattered clouds.7 mph49%29.77 "HgN/A
Weather by CustomWeather, © 2015

See weather overviewHow to use our weather pages